COSMOS 2251 DEB, 33984

Orbit data source: Space-Track

COSMOS 2251 DEB, 33984 is space debris in LEO originally from a launch on Wed, 16 Jun 1993 UTC launched from the Plesetsk Missile And Space Complex (PKMTR). The debris from Iridium 33, an American commercial communications satellite, has been tracked extensively since its accidental collision with the defunct Russian satellite Cosmos 2251 in 2009. This event, occurring at high speed in low Earth orbit (LEO), generated thousands of pieces of space debris, significantly increasing the risk of further collisions. The Iridium 33 debris cloud has impacted space traffic management and orbital debris mitigation strategies, making it a subject of ongoing study in space situational awareness.

Loading next visibility...
Identifier
33984, 1993-036FT
Orbit
LEO
Country
Flag of CISCIS
Related business
Manufacturer
Unknown
Mission
Spacecraft
Bus & Motor
Unknown
Mass
Unknown
Launch date (UTC)
1993-06-16 (33 years ago)
Launch vehicle
Unknown
Launch site
Plesetsk Missile And Space Complex (PKMTR)
Object type
Payload
Rocket body
Debris
Shape & HBR
Unknown shape, 0.2 m
Radar Cross Section
Small (<0.1 m²)

Expand to show TLE details & history
Last TLE update: 16 hours ago

TLE from 16 hours ago
0 COSMOS 2251 DEB
1 33984U 93036FT  26038.00817267  .00005636  00000-0  10067-2 0  9994
2 33984  74.0064 238.3978 0022714  56.4033  64.1837 14.66997727898919
Epoch: 2026-02-07T00:11Z
TLE epoch observation values (Epoch: 2026-02-07T00:11:46.118Z)
Latitude
55.75192°
Longitude
-106.43623°
Altitude
672.653 km
Speed
7.53 km/s
True Right ascension
02h 14m 34s
True Declination
55° 35' 23"
Sunlit
Object was in daylight at epoch
Visualization orbit readout
Latitude
Unknown
Longitude
Unknown
Altitude
Unknown
Speed
Unknown
Apparent Right ascension
Unknown
Apparent Declination
Unknown
Sunlit
N/A
Visualization observer readout
Local Sidereal Time
18:33:37
Azimuth
Unknown
Elevation
Unknown
Doppler factor
Unknown
Orbital elements
Apogee altitude
684.266 km
Perigee altitude
652.256 km
Semi-major axis
7,046.398 km
Eccentricity
0.00227
Inclination
74.0064°
RAAN
238.3978°
Arg. of periapsis
56.4033°
True anomaly
64.4183°
Mean anomaly
64.1837°
Eccentric anomaly
64.30097°
Mean motion
3.66938 °/min
Orbital period
98.11 mins
BSTAR
0.0010067
Loading maneuver chart data...
Computing Atmospheric mass density...
Loading historical data...
Loading historical data...
Loading historical data...
Loading historical data...
Loading historical data...
Loading historical data...
Loading historical data...

Documentation

Showing up to 5 results
|